Tracking 31027 objects as of 19-Jul-2025
HD Live streaming from Space Station
objects crossing your sky now

STARLINK-2388

Track STARLINK-2388 now!
10-day predictions
STARLINK-2388 is classified as:


NORAD ID: 47807
Int'l Code: 2021-018W
Perigee: 553.6 km
Apogee: 555.1 km
Inclination: 53.1 °
Period: 95.6 minutes
Semi major axis: 6925 km
RCS: Unknown
Launch date: March 11, 2021
Source: United States (US)
Launch site: AIR FORCE EASTERN TEST RANGE (AFETR)
Your satellite tracking list
STARLINK-6351
Track 1 satellite(s)




NASA's NSSDC Master Catalog

Two Line Element Set (TLE):
1 47807U 21018W   25199.66854285  .00000573  00000-0  57345-4 0  9991
2 47807  53.0543 192.1821 0001091  76.3559 283.7551 15.06398686241402
Source of the keplerian elements: AFSPC